Regional Weather Roundup
Issued by NWS

Home | Current Version | Previous Version | Graphics & Text | Print | Product List | Glossary On
Versions: 1 2 3 4 5 6 7 8 9 10 11 12 13 14 15 16 17 18 19 20 21 22 23 24 25 26 27
000
ASUS45 KBOI 240210
RWRID

IDAHO REGIONAL WEATHER ROUNDUP
NATIONAL WEATHER SERVICE BOISE ID
800 PM MDT SAT SEP 23 2017

NOTE: "FAIR" INDICATES FEW OR NO CLOUDS BELOW 12000 FEET
WITH NO SIGNIFICANT WEATHER AND/OR OBSTRUCTIONS TO VISIBILITY

IDZ012-014-240300-
SOUTHWEST IDAHO


CITY           SKY/WX    TMP DP  RH WIND       PRES   REMARKS
BOISE          PTCLDY    56  34  43 W8        30.01S
CALDWELL       PTCLDY    56  36  47 NW8       30.03R
MOUNTAIN HOME  CLEAR     54  36  51 NW10      30.01S
$$

IDZ016-017-240300-
SOUTHCENTRAL IDAHO


CITY           SKY/WX    TMP DP  RH WIND       PRES   REMARKS
BURLEY         PTCLDY    46  35  65 W7        29.99S
JEROME         CLEAR     47  37  68 SW6       30.01S
TWIN FALLS     CLEAR     44  36  73 SW8       30.01S
$$

IDZ019>023-240300-
SOUTHEAST IDAHO


CITY           SKY/WX    TMP DP  RH WIND       PRES   REMARKS
IDAHO FALLS    MOCLDY    45  34  65 N9        29.99R
POCATELLO      CLEAR     45  38  76 W6        29.98S
REXBURG        CLEAR     46  32  58 NW5       29.98S
$$

IDZ006-010-011-018-031-032-240300-
CENTRAL IDAHO MOUNTAINS


CITY           SKY/WX    TMP DP  RH WIND       PRES   REMARKS
MCCALL         CLOUDY    44  31  60 N7        30.06S
HAILEY         PTCLDY    43  34  70 N3        30.02S
STANLEY          N/A     41  25  53 N6        30.06S
SALMON         CLOUDY    47  29  49 N9        30.08R
CHALLIS        CLOUDY    44  34  67 NW6       30.05S
$$

IDZ002-004-006-007-026-240300-
NORTHERN IDAHO


CITY           SKY/WX    TMP DP  RH WIND       PRES   REMARKS
LEWISTON       CLEAR     60  39  45 E5        30.08S
LOWELL           N/A     52  46  80 CALM      30.11S
COEUR D`ALENE  CLOUDY    55  44  66 NE3       30.09R
MULLAN PASS    MOCLDY    35  32  88 S3        30.11S
$$




USA.gov is the U.S. government's official web portal to all federal, state and local government web resources and services.